| time (UTC) | temp F | wind direction | speed MPH | gust MPH | rain 1hr in | rain 24hr in | rain mn in | humidity % | barometer mb |
| 20260507074603 | 48 | 182 | 3.0 | 8.0 | 0.00 | 0.00 | 0.00 | 45 | 1013.7 |
| 20260507073057 | 45 | 151 | 1.0 | 6.0 | 0.00 | 0.00 | 0.00 | 52 | 1013.7 |
| 20260507071550 | 44 | 173 | 4.0 | 7.0 | 0.00 | 0.00 | 0.00 | 52 | 1013.8 |
| 20260507070049 | 44 | 176 | 6.0 | 10.0 | 0.00 | 0.00 | 0.00 | 54 | 1014.0 |
| 20260507064548 | 43 | 161 | 4.0 | 8.0 | 0.00 | 0.00 | 0.00 | 57 | 1014.0 |
| 20260507063043 | 42 | 169 | 6.0 | 10.0 | 0.00 | 0.00 | 0.00 | 57 | 1013.9 |
| 20260507061540 | 41 | 163 | 10.0 | 11.0 | 0.00 | 0.00 | 0.00 | 58 | 1013.8 |
| 20260507060040 | 40 | 180 | 7.0 | 9.0 | 0.00 | 0.00 | 0.00 | 63 | 1013.7 |
| 20260507054531 | 39 | 149 | 3.0 | 7.0 | 0.00 | 0.00 | 0.00 | 66 | 1013.5 |
| 20260507053027 | 37 | 161 | 4.0 | 6.0 | 0.00 | 0.00 | 0.00 | 69 | 1013.6 |
| 20260507051523 | 36 | 170 | 5.0 | 8.0 | 0.00 | 0.00 | 0.00 | 71 | 1013.5 |
| 20260507050026 | 35 | 159 | 6.0 | 9.0 | 0.00 | 0.00 | 0.00 | 73 | 1013.5 |
| 20260507044516 | 34 | 157 | 5.0 | 8.0 | 0.00 | 0.00 | 0.00 | 75 | 1013.6 |
| 20260507043020 | 32 | 163 | 6.0 | 9.0 | 0.00 | 0.00 | 0.00 | 78 | 1013.5 |
| 20260507041509 | 32 | 157 | 3.0 | 7.0 | 0.00 | 0.00 | 0.00 | 78 | 1013.4 |
| 20260507040007 | 31 | 153 | 4.0 | 7.0 | 0.00 | 0.00 | 0.00 | 80 | 1013.3 |
| 20260507034506 | 30 | 154 | 5.0 | 9.0 | 0.00 | 0.00 | 0.00 | 82 | 1013.4 |
| 20260507033001 | 29 | 147 | 5.0 | 9.0 | 0.00 | 0.00 | 0.00 | 84 | 1013.4 |
| 20260507031558 | 27 | 155 | 7.0 | 9.0 | 0.00 | 0.00 | 0.00 | 87 | 1013.5 |
| 20260507030056 | 25 | 159 | 4.0 | 9.0 | 0.00 | 0.00 | 0.00 | 88 | 1013.4 |
| 20260507024555 | 24 | 157 | 5.0 | 8.0 | 0.00 | 0.00 | 0.00 | 88 | 1013.5 |
| 20260507023103 | 23 | 169 | 2.0 | 4.0 | 0.00 | 0.00 | 0.00 | 87 | 1013.4 |
| 20260507021549 | 23 | 215 | 0.0 | 2.0 | 0.00 | 0.00 | 0.00 | 86 | 1013.4 |
| 20260507020051 | 24 | 215 | 0.0 | 2.0 | 0.00 | 0.00 | 0.00 | 85 | 1013.3 |
| 20260507014544 | 24 | 216 | 0.0 | 1.0 | 0.00 | 0.00 | 0.00 | 86 | 1013.4 |
| 20260507013043 | 24 | 216 | 0.0 | 1.0 | 0.00 | 0.00 | 0.00 | 86 | 1013.3 |
| 20260507011546 | 24 | 216 | 0.0 | 2.0 | 0.00 | 0.00 | 0.00 | 87 | 1013.4 |
| 20260507010041 | 24 | 236 | 0.0 | 2.0 | 0.00 | 0.00 | 0.00 | 86 | 1013.3 |
| 20260507004541 | 24 | 243 | 0.0 | 1.0 | 0.00 | 0.00 | 0.00 | 85 | 1013.4 |
| 20260507003038 | 24 | 243 | 0.0 | 0.0 | 0.00 | 0.00 | 0.00 | 85 | 1013.2 |
| 20260507001604 | 24 | 243 | 0.0 | 0.0 | 0.00 | 0.00 | 0.00 | 84 | 1013.3 |
| 20260507000041 | 24 | 243 | 0.0 | 1.0 | 0.00 | 0.00 | 0.00 | 83 | 1013.2 |
| 20260506234533 | 24 | 243 | 0.0 | 0.0 | 0.00 | 0.00 | 0.00 | 82 | 1013.0 |
| 20260506233031 | 25 | 243 | 0.0 | 1.0 | 0.00 | 0.00 | 0.00 | 82 | 1012.9 |
| 20260506231530 | 25 | 243 | 0.0 | 2.0 | 0.00 | 0.00 | 0.00 | 82 | 1013.0 |
| 20260506230045 | 26 | 244 | 0.0 | 0.0 | 0.00 | 0.00 | 0.00 | 81 | 1013.0 |
| 20260506224526 | 26 | 244 | 0.0 | 1.0 | 0.00 | 0.00 | 0.00 | 80 | 1013.0 |
| 20260506223029 | 27 | 244 | 0.0 | 1.0 | 0.00 | 0.00 | 0.00 | 79 | 1012.9 |
| 20260506221520 | 28 | 244 | 0.0 | 0.0 | 0.00 | 0.00 | 0.00 | 78 | 1013.0 |
| 20260506220017 | 28 | 244 | 0.0 | 0.0 | 0.00 | 0.00 | 0.00 | 76 | 1012.8 |
| 20260506214514 | 29 | 244 | 0.0 | 2.0 | 0.00 | 0.00 | 0.00 | 76 | 1012.7 |
| 20260506213010 | 30 | 244 | 0.0 | 1.0 | 0.00 | 0.00 | 0.00 | 78 | 1012.6 |
| 20260506211507 | 30 | 244 | 0.0 | 0.0 | 0.00 | 0.00 | 0.00 | 75 | 1012.4 |
| 20260506210007 | 31 | 244 | 0.0 | 0.0 | 0.00 | 0.00 | 0.00 | 72 | 1012.3 |
| 20260506204502 | 32 | 244 | 0.0 | 0.0 | 0.00 | 0.00 | 0.00 | 70 | 1012.2 |
| 20260506203001 | 33 | 244 | 0.0 | 0.0 | 0.00 | 0.00 | 0.00 | 68 | 1012.1 |
| 20260506201559 | 35 | 244 | 0.0 | 0.0 | 0.00 | 0.00 | 0.00 | 66 | 1012.0 |
| 20260506194601 | 38 | 244 | 0.0 | 0.0 | 0.00 | 0.00 | 0.00 | 62 | 1011.9 |
| 20260506193105 | 39 | 244 | 0.0 | 2.0 | 0.00 | 0.00 | 0.00 | 61 | 1011.9 |
| 20260506191556 | 40 | 244 | 0.0 | 4.0 | 0.00 | 0.00 | 0.00 | 60 | 1011.9 |
| 20260506190055 | 41 | 228 | 2.0 | 8.0 | 0.00 | 0.00 | 0.00 | 60 | 1011.8 |
| 20260506184554 | 42 | 238 | 1.0 | 7.0 | 0.00 | 0.00 | 0.00 | 59 | 1011.7 |
| 20260506183103 | 43 | 238 | 1.0 | 7.0 | 0.00 | 0.00 | 0.00 | 58 | 1011.6 |
| 20260506181555 | 44 | 246 | 2.0 | 9.0 | 0.00 | 0.00 | 0.00 | 56 | 1011.4 |
| 20260506180051 | 44 | 240 | 3.0 | 8.0 | 0.00 | 0.00 | 0.00 | 55 | 1011.2 |
| 20260506174548 | 45 | 251 | 2.0 | 10.0 | 0.00 | 0.00 | 0.00 | 53 | 1011.1 |
| 20260506173049 | 45 | 248 | 3.0 | 12.0 | 0.00 | 0.00 | 0.00 | 54 | 1010.9 |
| 20260506171545 | 46 | 335 | 1.0 | 9.0 | 0.00 | 0.00 | 0.00 | 53 | 1010.8 |
| 20260506170052 | 47 | 275 | 3.0 | 11.0 | 0.00 | 0.00 | 0.00 | 51 | 1010.7 |
| 20260506164555 | 48 | 259 | 4.0 | 11.0 | 0.00 | 0.00 | 0.00 | 50 | 1010.6 |
| 20260506163045 | 49 | 269 | 5.0 | 12.0 | 0.00 | 0.00 | 0.00 | 48 | 1010.5 |
| 20260506161540 | 49 | 271 | 7.0 | 12.0 | 0.00 | 0.00 | 0.00 | 48 | 1010.4 |
| 20260506160038 | 49 | 281 | 4.0 | 9.0 | 0.00 | 0.00 | 0.00 | 50 | 1010.3 |
| 20260506154539 | 49 | 261 | 1.0 | 10.0 | 0.00 | 0.00 | 0.00 | 50 | 1010.2 |
| 20260506153037 | 48 | 248 | 5.0 | 11.0 | 0.00 | 0.00 | 0.00 | 50 | 1010.2 |
| 20260506151539 | 49 | 300 | 3.0 | 13.0 | 0.00 | 0.00 | 0.00 | 48 | 1010.2 |
| 20260506150042 | 48 | 291 | 3.0 | 9.0 | 0.00 | 0.00 | 0.00 | 52 | 1010.2 |
| 20260506144536 | 47 | 266 | 7.0 | 15.0 | 0.00 | 0.00 | 0.00 | 50 | 1010.2 |
| 20260506143039 | 48 | 242 | 3.0 | 12.0 | 0.00 | 0.00 | 0.00 | 50 | 1010.2 |
| 20260506141541 | 49 | 269 | 4.0 | 14.0 | 0.00 | 0.00 | 0.00 | 48 | 1010.2 |
| 20260506140034 | 51 | 261 | 7.0 | 19.0 | 0.00 | 0.00 | 0.00 | 47 | 1010.2 |
| 20260506134631 | 51 | 273 | 5.0 | 14.0 | 0.00 | 0.00 | 0.00 | 49 | 1010.1 |
| 20260506133029 | 50 | 294 | 4.0 | 15.0 | 0.00 | 0.00 | 0.00 | 50 | 1010.1 |
| 20260506131528 | 48 | 305 | 5.0 | 16.0 | 0.00 | 0.00 | 0.00 | 53 | 1009.9 |
| 20260506130030 | 47 | 313 | 6.0 | 15.0 | 0.00 | 0.00 | 0.00 | 56 | 1009.8 |
| 20260506124528 | 47 | 327 | 10.0 | 19.0 | 0.00 | 0.00 | 0.00 | 55 | 1010.0 |
| 20260506123027 | 47 | 279 | 7.0 | 15.0 | 0.00 | 0.00 | 0.00 | 54 | 1009.9 |
| 20260506121524 | 45 | 321 | 8.0 | 15.0 | 0.00 | 0.00 | 0.00 | 56 | 1009.9 |
| 20260506120046 | 45 | 292 | 6.0 | 16.0 | 0.00 | 0.00 | 0.00 | 55 | 1009.9 |
| 20260506114522 | 46 | 256 | 8.0 | 22.0 | 0.00 | 0.00 | 0.00 | 54 | 1009.8 |
| 20260506113021 | 47 | 273 | 9.0 | 18.0 | 0.00 | 0.00 | 0.00 | 53 | 1009.5 |
| 20260506111518 | 46 | 278 | 11.0 | 21.0 | 0.00 | 0.00 | 0.00 | 54 | 1009.2 |
| 20260506110016 | 47 | 257 | 7.0 | 20.0 | 0.00 | 0.00 | 0.00 | 51 | 1009.0 |
| 20260506104526 | 50 | 254 | 8.0 | 17.0 | 0.00 | 0.00 | 0.00 | 47 | 1008.8 |
| 20260506103033 | 49 | 290 | 5.0 | 20.0 | 0.00 | 0.00 | 0.00 | 47 | 1008.6 |
| 20260506101509 | 49 | 290 | 9.0 | 18.0 | 0.00 | 0.00 | 0.00 | 45 | 1008.5 |
| 20260506100007 | 48 | 255 | 9.0 | 20.0 | 0.00 | 0.00 | 0.00 | 47 | 1008.5 |
| 20260506094505 | 48 | 298 | 7.0 | 18.0 | 0.00 | 0.00 | 0.00 | 50 | 1008.3 |
| 20260506093010 | 48 | 272 | 8.0 | 19.0 | 0.00 | 0.00 | 0.00 | 48 | 1008.1 |
| 20260506091502 | 49 | 307 | 7.0 | 19.0 | 0.00 | 0.00 | 0.00 | 48 | 1008.0 |
| 20260506090104 | 48 | 259 | 4.0 | 18.0 | 0.00 | 0.00 | 0.00 | 50 | 1008.0 |
| 20260506084619 | 46 | 226 | 7.0 | 21.0 | 0.00 | 0.00 | 0.00 | 53 | 1007.8 |
| 20260506083053 | 46 | 295 | 9.0 | 19.0 | 0.00 | 0.00 | 0.00 | 51 | 1007.8 |
| 20260506081556 | 46 | 287 | 9.0 | 20.0 | 0.00 | 0.00 | 0.00 | 53 | 1007.6 |